[[{"header":{"parameterUnit":"m.s-1","parameterCategory":1,"la1":30.2991,"la2":30.254,"lo1":-89.0895,"lo2":-89.0444,"dy":0.0017,"dx":0.0017,"nx":28,"ny":28,"refTime":"2026-03-03T03:00:00:Z","depth":0,"parameterNumber":2,"parameterNumberName":"U-component_of_WINDS"},"data":[0,0,0,0,0,0,0,0,0,0,0,0,0,0,0,0,0,0,0,0,0,0,0,0,0,0,0,0,0,0,0,0,0,0,0,0,0,0,0,0,0,0,0,0,0,0,0,0,0,0,0,0,0,0,0,0,0,0,-4.6967,-4.6968,0,-4.7089,-4.709,-4.7092,-4.7082,-4.7081,-4.7079,-4.7077,-4.72,-4.7204,-4.7209,0,0,0,0,0,0,0,0,0,0,0,0,0,-4.6727,-4.6731,-4.6967,-4.6969,-4.697,-4.7089,-4.709,-4.7092,-4.7083,-4.7081,-4.7078,-4.7076,-4.7198,-4.7204,-4.721,0,0,0,0,0,0,0,0,0,0,0,0,0,-4.6838,-4.6733,-4.6967,-4.698,-4.6982,-4.7088,-4.709,-4.7092,-4.7083,-4.7081,-4.7078,-4.7075,-4.7196,-4.7203,-4.7211,-4.7311,0,0,-4.7233,-4.7236,0,0,0,0,0,0,0,0,-4.6832,-4.6847,-4.6976,-4.6979,-4.6982,-4.7068,-4.7051,-4.7166,-4.7084,-4.7045,-4.7077,-4.7074,-4.7158,-4.7168,-4.7197,-4.7317,-4.7322,-4.7234,-4.7238,-4.7242,-4.7244,0,0,0,0,0,0,0,-4.6824,-4.6842,-4.7015,-4.6978,-4.6982,-4.698,-4.6993,-4.7072,-4.7115,-4.7048,-4.7048,-4.7062,-4.7159,-4.719,-4.72,-4.7324,-4.7234,-4.724,-4.7245,-4.7248,-4.7535,-4.7538,0,0,0,0,0,0,-4.6813,-4.6835,-4.7011,-4.7019,-4.6899,-4.6986,-4.7001,-4.7043,-4.7114,-4.7122,-4.7065,-4.7061,-4.7178,-4.7191,-4.7204,-4.7327,-4.7241,-4.7248,-4.7253,-4.7532,-4.7535,-4.7539,0,0,0,0,0,0,-4.6808,-4.6829,-4.7006,-4.6927,-4.6949,-4.6993,-4.7041,-4.7047,-4.7078,-4.7127,-4.7134,-4.7088,-4.7177,-4.7193,-4.7285,-4.7331,-4.7252,-4.7259,-4.7528,-4.7533,-4.7537,-4.7573,0,0,0,0,0,0,-4.6801,-4.6827,-4.6865,-4.6928,-4.6954,-4.7085,-4.7044,-4.7051,-4.7091,-4.7088,-4.7151,-4.7159,-4.7176,-4.7274,-4.7292,-4.734,-4.7264,-4.7524,-4.753,-4.7536,-4.7568,-4.7579,-4.7588,0,0,0,0,0,-4.6793,-4.687,-4.6867,-4.6889,-4.7002,-4.7088,-4.7102,-4.7121,-4.7095,-4.7133,-4.7166,-4.7157,-4.7324,-4.7284,-4.7304,-4.7354,-4.7521,-4.7528,-4.7535,-4.7564,-4.7577,-4.7587,0,0,0,0,0,0,-4.6809,-4.6878,-4.6876,-4.6975,-4.7026,-4.7086,-4.7135,-4.7134,-4.7192,-4.7187,-4.7208,-4.7222,-4.7315,-4.7344,-4.7298,-4.7457,-4.7419,-4.743,-4.7433,-4.7446,-4.7456,-4.7446,-4.7271,0,0,0,0,0,-4.6825,-4.6889,-4.6945,-4.7028,-4.7054,-4.709,-4.7128,-4.7139,-4.7192,-4.7213,-4.7251,-4.7303,-4.7367,-4.7409,-4.747,-4.7574,-4.7588,-4.7619,-4.7629,-4.7636,-4.7645,-4.7704,-4.7719,-4.7562,-4.7562,-4.7562,0,0,-4.6856,-4.6902,-4.6941,-4.7032,-4.7073,-4.7139,-4.7108,-4.7178,-4.7228,-4.7223,-4.7312,-4.7343,-4.7402,-4.75,-4.7545,-4.7528,-4.7693,-4.7646,-4.7651,-4.7656,-4.7713,-4.7727,-4.7741,-4.7567,-4.7566,-4.7565,0,0,-4.6948,-4.6989,-4.7063,-4.7105,-4.7168,-4.7193,-4.7211,-4.7272,-4.7293,-4.7383,-4.7382,-4.7442,-4.7551,-4.7594,-4.763,-4.7744,-4.7738,-4.7763,-4.7813,-4.787,-4.7882,-4.7893,-4.7934,-4.7948,-4.7773,-4.7773,-4.7773,0,-4.6979,-4.7078,-4.71,-4.7173,-4.7213,-4.7215,-4.7291,-4.733,-4.741,-4.7438,-4.7418,-4.7558,-4.7598,-4.7707,-4.7735,-4.7764,-4.7786,-4.7754,-4.7879,-4.789,-4.7901,-4.794,-4.7955,-4.7775,-4.7775,-4.7775,-4.7775,0,-4.7114,-4.7184,-4.7236,-4.7314,-4.7362,-4.7435,-4.7468,-4.7514,-4.7522,-4.7549,-4.7643,-4.7691,-4.7764,-4.7791,-4.7799,-4.7903,-4.789,-4.7875,-4.7836,-4.7918,-4.7955,-4.797,-4.7779,-4.7778,-4.7777,-4.7777,0,0,-4.7214,-4.7308,-4.7326,-4.7363,-4.7435,-4.7489,-4.7564,-4.7637,-4.7675,-4.7731,-4.7794,-4.789,-4.7877,-4.7919,-4.7932,-4.7982,-4.807,-4.7961,-4.7963,-4.7979,-4.8188,-4.8197,-4.8214,-4.8068,-4.8071,-4.8073,-4.8183,0,-4.7312,-4.7444,-4.7469,-4.7584,-4.7649,-4.7655,-4.772,-4.7772,-4.7801,-4.7861,-4.7893,-4.796,-4.7938,-4.7963,-4.8014,-4.8048,-4.8112,-4.8041,-4.8126,-4.8129,-4.8109,-4.8233,-4.8243,-4.8343,-4.8197,-4.82,-4.8201,0,-4.7442,-4.7504,-4.7626,-4.7693,-4.7721,-4.7779,-4.7849,-4.7907,-4.7966,-4.7984,-4.8033,-4.8042,-4.812,-4.8082,-4.8191,-4.8142,-4.818,-4.8203,-4.8207,-4.8213,-4.8168,-4.8242,-4.8376,-4.839,-4.8224,-4.8222,-4.8221,0,-4.7502,-4.7616,-4.7705,-4.7736,-4.7816,-4.7857,-4.7892,-4.7949,-4.7992,-4.8054,-4.8083,-4.8153,-4.819,-4.8245,-4.8273,-4.8242,-4.8381,-4.8344,-4.8397,-4.8397,-4.8423,-4.8421,-4.8563,-4.8451,-4.8451,-4.845,-4.845,0,-4.7607,-4.7682,-4.7733,-4.7787,-4.7872,-4.7901,-4.7983,-4.8018,-4.807,-4.8131,-4.8141,-4.8198,-4.8233,-4.8296,-4.8319,-4.8406,-4.8424,-4.844,-4.8445,-4.8438,-4.8436,-4.846,-4.8453,-4.8454,-4.8454,-4.8453,-4.8452,0,-4.7686,-4.7724,-4.7821,-4.789,-4.7909,-4.7968,-4.8027,-4.8081,-4.8112,-4.819,-4.821,-4.8258,-4.8333,-4.8368,-4.846,-4.8476,-4.8575,-4.8576,-4.8555,-4.8556,-4.8607,-4.8601,-4.8769,-4.8792,-4.8666,-4.8667,-4.8668,0,-4.7749,-4.7807,-4.7884,-4.7927,-4.7963,-4.8031,-4.8077,-4.8109,-4.8156,-4.8231,-4.8275,-4.8351,-4.8413,-4.8533,-4.8576,-4.8648,-4.8649,-4.8704,-4.866,-4.8652,-4.8649,-4.8644,-4.865,-4.871,-4.8711,-4.8712,-4.8713,0,-4.7857,-4.7875,-4.7939,-4.8013,-4.8067,-4.8125,-4.8183,-4.8217,-4.8259,-4.8311,-4.8389,-4.8438,-4.8534,-4.8609,-4.8685,-4.8721,-4.8724,-4.8728,-4.8743,-4.8735,-4.872,-4.8728,-4.8574,-4.8722,-4.8721,-4.8721,-4.872,-4.872,-4.793,-4.7982,-4.8045,-4.8118,-4.8166,-4.8221,-4.8275,-4.8315,-4.838,-4.8461,-4.8477,-4.856,-4.8622,-4.8724,-4.8764,-4.8829,-4.8816,-4.8839,-4.8845,-4.8849,-4.8852,-4.8713,-4.8843,-4.8843,-4.8843,-4.8843,-4.8842,0,-4.8037,-4.8079,-4.8147,-4.8228,-4.8287,-4.8288,-4.8353,-4.8401,-4.8474,-4.8532,-4.8595,-4.8685,-4.876,-4.8811,-4.8887,-4.893,-4.8933,-4.8948,-4.8944,-4.8953,-4.8859,-4.8838,-4.8944,-4.8944,-4.8944,-4.8944,-4.8944,-4.8944,-4.8099,-4.8189,-4.8214,-4.8328,-4.837,-4.8452,-4.8489,-4.854,-4.8587,-4.8688,-4.8751,-4.8785,-4.8841,-4.8922,-4.899,-4.9004,-4.903,-4.9046,-4.9058,-4.897,-4.8959,-4.8948,-4.8928,-4.9052,-4.9052,-4.9146,-4.9147,-4.9147]},{"header":{"parameterUnit":"m.s-1","parameterCategory":1,"la1":30.2991,"la2":30.254,"lo1":-89.0895,"lo2":-89.0444,"dy":0.0017,"dx":0.0017,"nx":28,"ny":28,"refTime":"2026-03-03T03:00:00:Z","depth":0,"parameterNumber":3,"parameterNumberName":"V-component_of_WINDS"},"data":[0,0,0,0,0,0,0,0,0,0,0,0,0,0,0,0,0,0,0,0,0,0,0,0,0,0,0,0,0,0,0,0,0,0,0,0,0,0,0,0,0,0,0,0,0,0,0,0,0,0,0,0,0,0,0,0,0,0,1.0427,1.0428,0,1.0499,1.05,1.05,1.06,1.0602,1.0604,1.0605,1.0672,1.0672,1.0673,0,0,0,0,0,0,0,0,0,0,0,0,0,1.0372,1.0373,1.0427,1.0428,1.0429,1.0499,1.05,1.0501,1.06,1.0602,1.0604,1.0606,1.0672,1.0672,1.0673,0,0,0,0,0,0,0,0,0,0,0,0,0,1.0415,1.0373,1.0427,1.0487,1.0493,1.0499,1.05,1.0501,1.0599,1.0602,1.0604,1.0607,1.0672,1.0672,1.0673,1.0623,0,0,1.0674,1.0674,0,0,0,0,0,0,0,0,1.0412,1.0417,1.0477,1.0483,1.0489,1.0543,1.0505,1.0542,1.0599,1.0559,1.0605,1.0608,1.0627,1.0631,1.0639,1.0626,1.0629,1.0674,1.0674,1.0674,1.0674,0,0,0,0,0,0,0,1.0409,1.0414,1.0455,1.0478,1.0485,1.0509,1.0518,1.0513,1.0577,1.0562,1.057,1.0577,1.0631,1.0638,1.0641,1.063,1.0674,1.0674,1.0674,1.0674,1.0585,1.0583,0,0,0,0,0,0,1.0398,1.0411,1.0453,1.0457,1.0457,1.0508,1.0518,1.0523,1.0578,1.0589,1.0575,1.0582,1.0636,1.064,1.0644,1.0592,1.0674,1.0674,1.0674,1.0587,1.0584,1.0582,0,0,0,0,0,0,1.0396,1.0401,1.045,1.0436,1.0445,1.0506,1.0511,1.0523,1.0531,1.0587,1.0599,1.0571,1.0639,1.0643,1.0629,1.0596,1.0674,1.0675,1.059,1.0587,1.0583,1.0486,0,0,0,0,0,0,1.0394,1.04,1.0382,1.0435,1.0445,1.0435,1.0509,1.0523,1.0532,1.0541,1.0587,1.0596,1.0641,1.0628,1.0629,1.0597,1.0675,1.0594,1.0589,1.0584,1.0493,1.0479,1.0468,0,0,0,0,0,1.0392,1.035,1.038,1.0385,1.0424,1.0432,1.0438,1.0492,1.0529,1.0512,1.0549,1.0595,1.0599,1.0626,1.0628,1.0596,1.0596,1.059,1.0585,1.0498,1.0482,1.0469,0,0,0,0,0,0,1.0287,1.0357,1.0392,1.0366,1.0393,1.0449,1.0429,1.0472,1.0487,1.0495,1.056,1.0569,1.0547,1.057,1.0598,1.0553,1.0605,1.0599,1.0538,1.0524,1.0512,1.0506,1.0675,0,0,0,0,0,1.0262,1.0264,1.0325,1.0295,1.0308,1.0366,1.0371,1.0411,1.044,1.0451,1.0487,1.0512,1.052,1.0523,1.0533,1.0497,1.0509,1.0476,1.0464,1.0454,1.0448,1.0433,1.042,1.0563,1.0563,1.0563,0,0,1.0207,1.0246,1.0243,1.0276,1.0301,1.0301,1.0374,1.0371,1.0372,1.045,1.044,1.0467,1.05,1.0475,1.0466,1.0494,1.0412,1.0446,1.0438,1.0438,1.0426,1.0412,1.04,1.0559,1.056,1.056,0,0,1.011,1.0139,1.012,1.0145,1.0184,1.0223,1.0219,1.0269,1.0291,1.0283,1.0343,1.0344,1.0355,1.0377,1.0389,1.0304,1.0348,1.0305,1.0242,1.0227,1.0215,1.0206,1.0177,1.0166,1.03,1.0299,1.0299,0,1.0037,1.0041,1.0103,1.0098,1.0111,1.0185,1.0166,1.0187,1.0226,1.0233,1.0264,1.0282,1.0309,1.0292,1.0272,1.0279,1.0276,1.03,1.0212,1.0203,1.0195,1.0168,1.0157,1.0294,1.0295,1.0295,1.0296,0,0.9951,0.9953,0.9933,0.9973,0.9983,0.997,1.003,1.0033,1.0073,1.0109,1.0101,1.0137,1.0156,1.0155,1.0192,1.0144,1.0161,1.0201,1.0255,1.0175,1.0151,1.0141,1.0286,1.0288,1.029,1.0291,0,0,0.9786,0.9864,0.9855,0.9876,0.9926,0.9928,0.992,0.9942,0.9944,0.9969,0.9964,0.9974,1.0013,1.0027,1.0068,1.0054,0.9987,1.0097,1.0099,1.0076,0.9939,0.9909,0.9896,1.0017,1.0016,1.0014,0.9937,0,0.9699,0.969,0.9748,0.9723,0.9727,0.98,0.9793,0.9823,0.9857,0.9865,0.9902,0.9909,0.9959,0.9969,0.9959,0.9997,0.9961,1.0004,1.0013,1.0012,1.0003,0.9883,0.985,0.9775,0.9928,0.9926,0.9925,0,0.9595,0.9618,0.9595,0.9651,0.9654,0.9647,0.9674,0.968,0.9716,0.9742,0.976,0.9808,0.9804,0.9856,0.9851,0.9879,0.9886,0.9906,0.9904,0.9907,0.9963,0.9883,0.9752,0.9741,0.991,0.9911,0.9913,0,0.9479,0.9504,0.9495,0.951,0.9573,0.9567,0.9593,0.9631,0.9642,0.9665,0.9673,0.9694,0.9705,0.972,0.9773,0.9806,0.9762,0.9818,0.9784,0.9783,0.9771,0.9771,0.964,0.9775,0.9775,0.9775,0.9775,0,0.9375,0.9359,0.9445,0.9438,0.9423,0.9489,0.9471,0.9503,0.9538,0.954,0.9603,0.9603,0.9673,0.968,0.9721,0.9712,0.9716,0.9737,0.9748,0.9731,0.9729,0.9737,0.9743,0.9772,0.9773,0.9773,0.9774,0,0.9243,0.9299,0.9294,0.9356,0.9372,0.9357,0.941,0.9407,0.9447,0.9449,0.9453,0.9514,0.9527,0.9582,0.9606,0.9634,0.9611,0.9633,0.96,0.9607,0.957,0.9573,0.944,0.9426,0.9569,0.9567,0.9566,0,0.9173,0.9162,0.9225,0.9232,0.9256,0.9265,0.9278,0.9343,0.9354,0.9396,0.9388,0.9407,0.9425,0.9442,0.9488,0.9508,0.9531,0.9483,0.9534,0.9519,0.9532,0.9532,0.9532,0.9472,0.947,0.9468,0.9467,0,0.9043,0.9073,0.909,0.9118,0.9132,0.9156,0.9183,0.9185,0.9258,0.9266,0.9282,0.9296,0.9324,0.9342,0.937,0.9396,0.9443,0.9451,0.9444,0.9427,0.9409,0.942,0.957,0.9453,0.9455,0.9456,0.9456,0.9457,0.8941,0.8936,0.8981,0.8998,0.9027,0.9052,0.9053,0.9095,0.911,0.9139,0.9177,0.9188,0.9227,0.9271,0.9293,0.9303,0.9329,0.9319,0.9316,0.9313,0.9305,0.9408,0.9308,0.9308,0.9309,0.9309,0.9309,0,0.8816,0.8849,0.8865,0.8904,0.8918,0.8964,0.8998,0.9007,0.9016,0.905,0.9068,0.9087,0.9105,0.9155,0.9178,0.9176,0.9199,0.918,0.9181,0.9187,0.9279,0.9284,0.9162,0.9162,0.9162,0.9162,0.9162,0.9162,0.8753,0.8748,0.8784,0.8794,0.8828,0.8841,0.8857,0.8881,0.8908,0.8927,0.8944,0.8978,0.9018,0.9045,0.9065,0.9079,0.9085,0.9059,0.908,0.9166,0.918,0.9193,0.9197,0.906,0.906,0.8987,0.8986,0.8986]}]]